Regional Weather Roundup
Issued by NWS

Home | Current Version | Previous Version | Text Only | Print | Product List | Glossary Off
Versions: 1 2 3 4 5 6 7 8 9 10 11 12 13 14 15 16 17 18 19 20 21 22 23 24 25 26 27 28 29 30 31 32 33 34 35 36 37 38 39 40 41 42 43 44 45 46 47 48 49 50

719
ASUS45 KPSR 300710
RWRAZ

ARIZONA HOURLY REGIONAL WEATHER ROUNDUP
NATIONAL WEATHER SERVICE PHOENIX AZ
1200 AM MST TUE MAY 30 2017

NOTE: FAIR INDICATES FEW OR NO CLOUDS BELOW 12,000 FEET WITH NO
SIGNIFICANT WEATHER AND/OR OBSTRUCTIONS TO VISIBILITY.

AZZ001>003-036-300800-
NORTHWEST ARIZONA

CITY           SKY/WX    TMP DP  RH WIND       PRES   REMARKS
BULLHEAD CITY  PTCLDY    88  16   7 S8        29.71S
KINGMAN        MOCLDY    74  20  13 S12       29.92F
$$

AZZ004>008-015-016-018-300800-
NORTH CENTRAL ARIZONA

CITY           SKY/WX    TMP DP  RH WIND       PRES   REMARKS
GRAND CANYON   PTCLDY    48  30  49 CALM      30.17S
WILLIAMS       PTCLDY    52  23  32 S7        30.17F
PRESCOTT       PTCLDY    63  20  19 S5        30.06S
FLAGSTAFF      PTCLDY    43  26  51 CALM      30.20S
PAYSON         PTCLDY    68  16  13 E3        30.09F
PAGE           CLEAR     70  22  16 SW3       30.00R
$$

AZZ009>014-017-300800-
NORTHEAST ARIZONA

CITY           SKY/WX    TMP DP  RH WIND       PRES   REMARKS
WINSLOW        PTCLDY    67  28  23 E6        30.06R
SAINT JOHNS    PTCLDY    60  33  36 SE6       30.12S
WINDOW ROCK    CLEAR     50  30  46 CALM      30.21S
SHOW LOW       PTCLDY    55  25  30 CALM      30.17S
$$

AZZ540-542>544-546-548-300800-
GREATER PHOENIX AREA

CITY           SKY/WX    TMP DP  RH WIND       PRES   REMARKS
PHOENIX        CLOUDY    93  22   7 NW5       29.74S
DEER VALLEY    MOCLDY    81  20  10 NE8       29.77S
SCOTTSDALE     MOCLDY    82  34  17 CALM      29.79S
MESA-GATEWAY   PTCLDY    81  30  16 E6        29.78S
$$

AZZ539-553-300800-
SOUTHWEST MARICOPA COUNTY AND PINAL COUNTY

CITY           SKY/WX    TMP DP  RH WIND       PRES   REMARKS
CASA GRANDE    MOCLDY    79  30  16 CALM      29.80S
$$

AZZ503-504-507>509-300800-
SOUTHEAST ARIZONA

CITY           SKY/WX    TMP DP  RH WIND       PRES   REMARKS
TUCSON         MOCLDY    81  31  16 SE6       29.91S
NOGALES        MOCLDY    70  31  23 SE6       29.98F
SIERRA VISTA   PTCLDY    68  22  17 W7        30.04S
DOUGLAS        CLEAR     68  36  30 SE6       30.00F
SAFFORD        PTCLDY    78  34  20 E9        29.96R
$$

AZZ532-300800-
SOUTHWEST ARIZONA

CITY           SKY/WX    TMP DP  RH WIND       PRES   REMARKS
YUMA           PTCLDY    80  48  32 S9        29.72S
$$

CAZ041-043-047-048-061-525>527-560>570-300800-
SOUTHERN CALIFORNIA

CITY           SKY/WX    TMP DP  RH WIND       PRES   REMARKS
DOWNTOWN L.A.  NOT AVBL
L.A. AIRPORT   CLOUDY    61  56  83 SE7       29.91F
SAN DIEGO      CLOUDY    61  56  83 S5        29.95F
BURBANK        CLEAR     60  54  80 SE8       29.91F
ONTARIO        MOCLDY    59  54  83 SW8       29.92S
RIVERSIDE      CLEAR     59  55  87 W6        29.92F
PALM SPRINGS   CLEAR     84  49  29 W3        29.75S
EL CENTRO NAS  CLEAR     81  44  27 NW7       29.70S
IMPERIAL       PTCLDY    79  50  36 W5        29.69R
BLYTHE         MOCLDY    86  27  11 SW7       29.71S
NEEDLES        PTCLDY    92  20   7 W14       29.72S
$$

NVZ020-UTZ003-300800-
SOUTHERN NEVADA-UTAH

CITY           SKY/WX    TMP DP  RH WIND       PRES   REMARKS
LAS VEGAS      MOCLDY    85  18   8 SW3       29.79F
SALT LAKE CITY CLEAR     66  44  45 CALM      30.05S
$$

NMZ009-TXZ055-300800-
NEW MEXICO-WEST TEXAS

CITY           SKY/WX    TMP DP  RH WIND       PRES   REMARKS
ALBUQUERQUE    CLOUDY    59  44  57 N8        30.21S
EL PASO        PTCLDY    67  48  50 E13       30.13S
$$


........................KEY........................
SKY/WX - SKY CONDITION/WEATHER
TMP    - TEMPERATURE IN FAHRENHEIT
DP     - DEW POINT IN FAHRENHEIT
RH     - RELATIVE HUMIDITY IN PERCENT
WIND   - DIRECTION AND SPEED IN MILES PER HOUR (MPH)
VRB    - VARIABLE WIND DIRECTION
PRES   - MEAN SEA LEVEL PRESSURE IN INCHES OF MERCURY
         F - FALLING PRESSURE   R - RISING PRESSURE
         S - STEADY PRESSURE
VSB    - VISIBILITY IN MILES
HX     - HEAT INDEX IN FAHRENHEIT
WCI    - WIND CHILL INDEX IN FAHRENHEIT
TC     - TEMPERATURE IN CELSIUS WHICH IS ALSO KNOWN AS
         TEMPERATURE IN CENTIGRADE
AFB    - AIR FORCE BASE
         LUKE AFB IS LUKE AIR FORCE BASE
         DAVIS-MONTHAN IS DAVIS-MONTHAN AIR FORCE BASE
NAS    - NAVAL AIR STATION
         EL CENTRO NAS IS EL CENTRO NAVAL AIR STATION
N/A    - NOT AVAILABLE





USA.gov is the U.S. government's official web portal to all federal, state and local government web resources and services.